TimePDT,TemperatureF,Dew PointF,Humidity,Sea Level PressureIn,VisibilityMPH,Wind Direction,Wind SpeedMPH,Gust SpeedMPH,PrecipitationIn,Events,Conditions,WindDirDegrees,DateUTC
12:53 AM,54.0,37.9,55,29.94,10.0,North,5.8,-,N/A,,Scattered Clouds,350,2013-09-26 07:53:00
1:53 AM,51.1,37.9,61,29.95,10.0,North,5.8,-,N/A,,Clear,350,2013-09-26 08:53:00
2:53 AM,42.1,35.1,76,29.97,10.0,Calm,Calm,-,N/A,,Clear,0,2013-09-26 09:53:00
3:53 AM,39.9,33.1,77,29.98,10.0,Calm,Calm,-,N/A,,Partly Cloudy,0,2013-09-26 10:53:00
4:53 AM,42.1,35.1,76,29.98,10.0,Calm,Calm,-,N/A,,Overcast,0,2013-09-26 11:53:00
5:53 AM,42.1,36.0,79,29.99,10.0,WSW,3.5,-,N/A,,Overcast,250,2013-09-26 12:53:00
6:53 AM,44.1,36.0,73,30.01,10.0,Calm,Calm,-,N/A,,Mostly Cloudy,0,2013-09-26 13:53:00
7:53 AM,46.9,37.9,71,30.02,10.0,West,4.6,-,N/A,,Overcast,270,2013-09-26 14:53:00
8:53 AM,50.0,39.0,66,30.04,10.0,Calm,Calm,-,N/A,,Mostly Cloudy,0,2013-09-26 15:53:00
9:53 AM,53.1,39.9,61,30.05,10.0,Calm,Calm,-,N/A,,Mostly Cloudy,0,2013-09-26 16:53:00
10:53 AM,57.0,41.0,55,30.05,10.0,Calm,Calm,-,N/A,,Mostly Cloudy,0,2013-09-26 17:53:00
11:53 AM,62.1,39.0,43,30.04,10.0,NNW,8.1,-,N/A,,Partly Cloudy,340,2013-09-26 18:53:00
12:53 PM,64.0,36.0,35,30.04,10.0,Calm,Calm,-,N/A,,Clear,0,2013-09-26 19:53:00
1:53 PM,64.9,36.0,34,30.03,10.0,Calm,Calm,-,N/A,,Mostly Cloudy,0,2013-09-26 20:53:00
2:53 PM,64.9,35.1,33,30.03,10.0,Calm,Calm,-,N/A,,Mostly Cloudy,0,2013-09-26 21:53:00
3:53 PM,66.0,36.0,33,30.03,10.0,ENE,5.8,-,N/A,,Mostly Cloudy,60,2013-09-26 22:53:00
4:53 PM,66.0,34.0,30,30.03,10.0,North,3.5,-,N/A,,Mostly Cloudy,350,2013-09-26 23:53:00
5:53 PM,64.9,35.1,33,30.04,10.0,NNW,3.5,-,N/A,,Mostly Cloudy,330,2013-09-27 00:53:00
6:53 PM,59.0,39.0,48,30.05,10.0,West,5.8,-,N/A,,Mostly Cloudy,260,2013-09-27 01:53:00
7:53 PM,57.0,39.9,53,30.06,10.0,West,4.6,-,N/A,,Overcast,260,2013-09-27 02:53:00
8:53 PM,55.0,37.9,53,30.08,10.0,West,6.9,-,N/A,,Mostly Cloudy,270,2013-09-27 03:53:00
9:53 PM,50.0,39.0,66,30.09,10.0,WNW,5.8,-,N/A,,Partly Cloudy,290,2013-09-27 04:53:00
10:53 PM,48.9,37.9,66,30.09,10.0,Calm,Calm,-,N/A,,Clear,0,2013-09-27 05:53:00
11:53 PM,43.0,36.0,76,30.09,10.0,NW,4.6,-,N/A,,Clear,320,2013-09-27 06:53:00